User: anonymous
Location: Unspecified
(0.0000°N, 0.0000°E)
Time: 14:00:27
(UTC+00:00)
Language:

HST - Orbit

View from above orbital plane
View from above orbital plane
View from above satellite
View from above satellite

Ground track
Ground track

The orbit data is extracted from the following two-line orbital elements,

1 20580U 90037B   14241.16199280  .00001655  00000-0  10000-3 0   972
2 20580 028.4696 277.3469 0003009 347.0576 012.9918 15.05659759135724
Epoch (UTC): 29 August 2014 03:53:16
Eccentricity: 0.0003009
inclination: 28.4696°
perigee height: 547 km
apogee height: 551 km
right ascension of ascending node: 277.3469°
argument of perigee: 347.0576°
revolutions per day: 15.05659759
mean anomaly at epoch: 12.9918°
orbit number at epoch: 13572

The dashed part of the orbit path shows where the satellite is in the earth's shadow,  

DLR